Regional Weather Roundup
Issued by NWS Upton, NY

Current Version | Previous Version | Graphics & Text | Print | Product List | Glossary Off
Versions: 1 2 3 4 5 6 7 8 9 10 11 12 13 14 15 16 17 18 19 20 21 22 23 24 25 26

000
ASUS41 KOKX 171705
RWROKX

Regional Weather Roundup
National Weather Service New York NY
1200 PM EST SAT FEB 17 2018

Note: "FAIR" indicates few or no clouds below 12,000 feet with no
significant weather and/or obstructions to visibility.

NYZ071-072-176-178-NJZ106-104-171800-
New York City Metro Area

CITY           SKY/WX    TMP DP  RH WIND       PRES   REMARKS
Central Park   FAIR      38  20  48 CALM      30.40S
Bronx Bot Gard   N/A     36  19  51 E6        30.37F WCI  31
Bronx Lehman C   N/A     36  19  51 E3          N/A
LaGuardia Arpt PTSUNNY   36  20  52 NE9       30.38F WCI  29
Queens College   N/A     37  18  44 S9          N/A  WCI  31
Kennedy Intl   PTSUNNY   38  17  42 SE12      30.41R WCI  30
Breezy Point     N/A     34 N/A N/A SE9         N/A  WCI  26
Brooklyn Coll    N/A     36  23  60 SE10        N/A  WCI  28
Staten Island    N/A     36  21  55 SE13        N/A  WCI  27
Newark/Liberty PTSUNNY   38  19  46 SE14      30.37F WCI  30
Teterboro      FAIR      37  18  46 SE12G17   30.37F WCI  29
$$

NYZ177-179-078>081-171800-
Long Island New York

CITY           SKY/WX    TMP DP  RH WIND       PRES   REMARKS
Jones Beach      N/A     34 N/A N/A SE8         N/A  WCI  27
Wantagh          N/A     37  23  56 SE10        N/A  WCI  30
Hempstead        N/A     37  18  44 S10       30.42R WCI  30
Matinecock Pt    N/A     32 N/A N/A NE14        N/A  WCI  22
Farmingdale    FAIR      37  15  40 S13       30.37F WCI  29
MacArthur/ISP  PTSUNNY   39  16  39 SE12      30.36F WCI  32
Shirley        FAIR      38  17  42 SE14      30.37F WCI  30
Mt Sinai Harb    N/A    N/A N/A N/A NE7         N/A
Westhampton    FAIR      37  12  35 E9G17     30.38F WCI  30
East Hampton   FAIR      36  14  40 SE9       30.38S WCI  29
Southold         N/A     34  16  47 NE8         N/A  WCI  27
Montauk          N/A     37  19  48 VRB7      30.38F WCI  32
$$

NYZ052-065-067-171800-
Hudson Valley

CITY           SKY/WX    TMP DP  RH WIND       PRES   REMARKS
White Plains   FAIR      35  16  45 SE12      30.34F WCI  27
Larchmont Harb   N/A    N/A N/A N/A NE9         N/A
Croton On Huds   N/A     32 N/A N/A SW3         N/A
Somers           N/A     36  19  51 SE6         N/A  WCI  31
Brewster         N/A     36  16  44 SE3         N/A
Newburgh       MOSUNNY   34  19  55 VRB5      30.34F WCI  30
Montgomery     FAIR      34  17  50 CALM      30.32F
Otisville        N/A     32  18  55 S3          N/A
Warwick          N/A     34  18  51 SE9         N/A  WCI  26
Suffern          N/A     34  18  51 S5          N/A  WCI  30
Poughkeepsie   FAIR      35  16  45 CALM      30.34F
Albany         PTSUNNY   32  14  47 S8        30.34F WCI  25
$$

NJZ001-105-106-008-010-013-015-019>022-104-171800-
New Jersey

CITY           SKY/WX    TMP DP  RH WIND       PRES   REMARKS
Newark/Liberty PTSUNNY   38  19  46 SE14      30.37F WCI  30
Teterboro      FAIR      37  18  46 SE12G17   30.37F WCI  29
Caldwell       FAIR      36  16  44 SE9       30.36F WCI  29
Somerville     FAIR      39  21  48 SE8       30.33F WCI  33
Linden         FAIR      37  19  48 SE10      30.39S WCI  30
Perth Amboy      N/A     34 N/A N/A E14         N/A  WCI  24
Sussex         FAIR      36  20  52 VRB5      30.31F WCI  32
Andover          N/A     34  15  46 VRB3      30.31F
Trenton        FAIR      38  22  52 SE12      30.34F WCI  30
Millville      FAIR      41  26  55 SE9       30.35F
Atlantic City  FAIR      42  28  57 E12G21    30.35F
Wrightstown    NOT AVBL
Toms River     PTSUNNY   38  26  62 SE10      30.38F WCI  31
Belmar         FAIR      37  24  59 E12       30.38F WCI  29
$$

PAZ047>061-062-071-171800-
Eastern Pennsylvania

CITY           SKY/WX    TMP DP  RH WIND       PRES   REMARKS
Philadelphia   PTSUNNY   39  20  46 SE12G23   30.35F WCI  32
Allentown      FAIR      37  19  48 VRB6      30.31F WCI  32
Scranton       FAIR      35  19  52 W6        30.24F WCI  30
$$

CTZ002-004>006-009-010-012-RIZ004-006-007-MAZ004-011-015-171800-
Southern New England

 In CT

CITY           SKY/WX    TMP DP  RH WIND       PRES   REMARKS
Bradley Intl   PTSUNNY   34  10  37 S5        30.35F WCI  30
Hartford       FAIR      35  12  38 SW3       30.36F
Danbury        FAIR      36  15  42 CALM      30.34F
Wtrbury/Oxford FAIR      34  12  40 E5        30.33F WCI  30
Norwalk Harbor   N/A    N/A N/A N/A E10         N/A
Bridgeport     FAIR      34  18  52 SE9       30.37F WCI  27
Meriden        FAIR      36  12  37 VRB7      30.35F WCI  30
New Haven      FAIR      36  16  44 SE9       30.36F WCI  29
Chester        FAIR      37   5  25 E6G13     30.34F WCI  33
Groton         FAIR      36  16  44 SE10      30.37F WCI  28
Willimantic    FAIR      36  10  34 VRB5      30.36F WCI  32

 In RI

CITY           SKY/WX    TMP DP  RH WIND       PRES   REMARKS
Providence     PTSUNNY   37  10  32 S7        30.39F WCI  32
Block Island   FAIR      34  19  54 E12       30.39F WCI  25
Westerly       FAIR      36  19  50 S10       30.39F WCI  28

In MA

CITY           SKY/WX    TMP DP  RH WIND       PRES   REMARKS
Boston         FAIR      32  10  40 SE10      30.40F WCI  24
Worcester      FAIR      31  10  41 SE6       30.31F WCI  25
Westfield      FAIR      34  11  38 SE6       30.33F WCI  29
Provincetown   FAIR      33  17  51 N6        30.41F WCI  28
Nantucket      FAIR      36  24  62 E6        30.40F WCI  31
$$

ANZ330-335-338-340-345-350-353-355-171800-
Coastal Marine Observations


STATION/POSITION TIME  SKY/WX   TEMP    WIND        PRES    VSBY  WAVE
                                AIR SEA DIR/SP/G                  HT/PER
                 (UTC)          (F)     (DEG/KT/KT) (MB)    (MI)  (FT/S)
NY Harb Entrance 1650            34 39  110/ 10/ 14 1028.9          2/11
20 S Fire Island 1650            35 42  100/ 12/ 14 1028.6          2/11
15 E Barnegat Li 1630               41                N/A           3/11
Hudson Canyon    1650            40 46   90/ 12/ 14 1027.8          4/ 6
Kings Point      1648            33 36   40/ 11/ 13 1029.7
Execution Rocks  NOT AVBL
Western LI Sound NOT AVBL
Central LI Sound 1645            32      80/  6/  8   N/A           0
Robbins Reef     1648            35     170/ 14/ 16 1029.8
$$


>>>>>>>>>>>>>>>>>>>>>>>>>>>> KEY <<<<<<<<<<<<<<<<<<<<<<<<<<<
>                                                          <
>     SKY/WX - Sky Condition/Present Weather               <
>     TMP    - Temperature in Fahrenheit                   <
>     DP     - Dew Point in Fahrenheit                     <
>     RH     - Relative Humidity in Percent                <
>     WIND   - Direction (from) and Speed in MPH           <
>     PRES   - Mean Sea Level Pressure (inches of Hg)      <
>     WCI    - Wind Chill Index                            <
>     VSB    - Visibility in Miles                         <
>     HX     - Heat Index                                  <
>     TC     - Temperature in Celsius                      <
>     VRB    - Varibale Wind Direction                     <
>                                                          <
>>>>>>>>>>>>>>>>>>>>>>>>>>>> KEY <<<<<<<<<<<<<<<<<<<<<<<<<<<




USA.gov is the U.S. government's official web portal to all federal, state and local government web resources and services.